TimeEDT,TemperatureF,Dew PointF,Humidity,Sea Level PressureIn,VisibilityMPH,Wind Direction,Wind SpeedMPH,Gust SpeedMPH,PrecipitationIn,Events,Conditions,WindDirDegrees,DateUTC
12:51 AM,55.0,39.0,55,29.93,10.0,NNW,12.7,-,N/A,,Partly Cloudy,330,2013-09-23 04:51:00
1:51 AM,54.0,39.0,57,29.94,10.0,NNW,10.4,-,N/A,,Partly Cloudy,330,2013-09-23 05:51:00
2:51 AM,53.1,39.9,61,29.94,10.0,NW,5.8,-,N/A,,Partly Cloudy,320,2013-09-23 06:51:00
3:51 AM,53.1,39.9,61,29.95,10.0,NW,6.9,-,N/A,,Partly Cloudy,320,2013-09-23 07:51:00
4:51 AM,52.0,39.9,63,29.96,10.0,NW,9.2,-,N/A,,Partly Cloudy,320,2013-09-23 08:51:00
5:51 AM,52.0,39.9,63,29.98,10.0,NNW,9.2,-,N/A,,Partly Cloudy,330,2013-09-23 09:51:00
6:51 AM,51.1,39.0,63,30.00,10.0,NNW,12.7,-,N/A,,Partly Cloudy,330,2013-09-23 10:51:00
7:51 AM,53.1,39.0,59,30.02,10.0,NNW,11.5,-,N/A,,Partly Cloudy,340,2013-09-23 11:51:00
8:51 AM,55.0,37.9,53,30.02,10.0,NNW,12.7,-,N/A,,Partly Cloudy,330,2013-09-23 12:51:00
9:51 AM,57.9,39.0,49,30.02,10.0,NNW,10.4,-,N/A,,Partly Cloudy,340,2013-09-23 13:51:00
10:51 AM,60.1,37.9,44,30.01,10.0,NW,17.3,21.9,N/A,,Partly Cloudy,320,2013-09-23 14:51:00
11:51 AM,62.1,39.9,44,30.01,10.0,NW,13.8,-,N/A,,Partly Cloudy,320,2013-09-23 15:51:00
12:51 PM,64.0,42.1,45,30.00,10.0,WNW,12.7,18.4,N/A,,Partly Cloudy,300,2013-09-23 16:51:00
1:51 PM,64.9,41.0,42,29.99,10.0,NW,15.0,20.7,N/A,,Partly Cloudy,320,2013-09-23 17:51:00
2:51 PM,66.0,41.0,40,29.97,10.0,NNW,11.5,18.4,N/A,,Partly Cloudy,330,2013-09-23 18:51:00
3:51 PM,66.0,39.9,38,29.97,10.0,NW,12.7,-,N/A,,Partly Cloudy,310,2013-09-23 19:51:00
4:51 PM,66.0,42.1,42,29.97,10.0,West,9.2,25.3,N/A,,Partly Cloudy,280,2013-09-23 20:51:00
5:51 PM,64.0,42.1,45,29.99,10.0,NNW,11.5,18.4,N/A,,Partly Cloudy,330,2013-09-23 21:51:00
6:51 PM,63.0,42.1,46,30.00,10.0,WNW,9.2,-,N/A,,Partly Cloudy,300,2013-09-23 22:51:00
7:51 PM,61.0,42.1,50,30.01,10.0,NW,9.2,19.6,N/A,,Clear,320,2013-09-23 23:51:00
8:51 PM,57.9,42.1,56,30.03,10.0,NW,15.0,-,N/A,,Clear,310,2013-09-24 00:51:00
9:51 PM,55.9,42.1,60,30.04,10.0,NW,10.4,-,N/A,,Clear,320,2013-09-24 01:51:00
10:51 PM,55.0,42.1,62,30.06,10.0,NNW,9.2,-,N/A,,Clear,330,2013-09-24 02:51:00
11:51 PM,53.1,42.1,66,30.05,10.0,North,8.1,-,N/A,,Clear,10,2013-09-24 03:51:00